Location: Newark
(45.8667°N, 9.7333°E)
Time: 18:43:26
(UTC+00:00)

A-11 Canister half - Pass Details

Date: 27 January 2020
Orbit: 1517 x 1683 km, 47.2° (Epoch: 26 February)

Event Time Altitude Azimuth Distance (km) Brightness Sun altitude
Rises 23:36:57 0° 251° (WSW) 4,738 - -62.5°
Reaches altitude 10° 23:40:03 10° 251° (WSW) 3,735 - -62.5°
Maximum altitude 23:49:29 87° 163° (SSE) 1,532 - -62.3°
Drops below altitude 10° 23:58:46 10° 76° (ENE) 3,681 - -62.0°
Exits shadow 00:01:41 - 77° (ENE) 4,630 11.7 -61.9°
Sets 00:01:48 0° 77° (ENE) 4,665 11.7 -61.9°
